This demonstration page uses our WeatherBlox Daily Observations layout. Learn more.

Hourly Observations for December 21, 2018

Temp ( °F °C ) Dew Point ( °F °C ) Humidity (%) Winds ( mph kmh ) Pressure ( in mb ) Visibility ( mi km ) Precip ( " mm )
12:15 am 00:15 Clear 29 -1.5 24 -4.5 80 80 WNW 6 9 30.09 1019 10 16.0934 0 0
12:35 am 00:35 Clear 29 -1.4 24 -4.6 79 79 WNW 3 6 30.09 1019 10 16.0934 0 0
12:55 am 00:55 Clear 28 -2.3 23 -4.8 83 83 W 7 11 30.09 1019 10 16.0934 0 0
1:15 am 01:15 Clear 29 -1.4 24 -4.7 79 79 W 7 11 30.09 1019 10 16.0934 0 0
1:35 am 01:35 Clear 28 -2.5 23 -5.1 83 83 W 5 7 30.09 1019 10 16.0934 0 0
1:55 am 01:55 Clear 29 -1.9 23 -4.8 81 81 W 8 13 30.09 1019 10 16.0934 0 0
2:15 am 02:15 Clear 28 -2 23 -4.9 81 81 WNW 5 7 30.06 1018 10 16.0934 0 0
2:35 am 02:35 Clear 27 -3 23 -5.1 86 86 WSW 3 6 30.06 1018 10 16.0934 0 0
2:55 am 02:55 Clear 26 -3.5 22 -5.3 88 88 W 6 9 30.06 1018 10 16.0934 0 0
3:15 am 03:15 Clear 27 -2.6 23 -5.2 83 83 W 6 9 30.06 1018 10 16.0934 0 0
3:35 am 03:35 Clear 26 -3.5 22 -5.5 86 86 W 6 9 30.06 1018 10 16.0934 0 0
3:55 am 03:55 Clear 26 -3.1 22 -5.5 84 84 W 5 7 30.03 1017 10 16.0934 0 0
4:15 am 04:15 Clear 28 -2.5 22 -5.5 80 80 W 5 7 30.03 1017 10 16.0934 0 0
4:35 am 04:35 Clear 28 -2.4 22 -5.5 80 80 Calm 30.03 1017 10 16.0934 0 0
4:55 am 04:55 Clear 24 -4.2 21 -6.1 87 87 Calm 30 1016 10 16.0934 0 0
5:15 am 05:15 Clear 25 -4 21 -6.1 86 86 Calm 30 1016 10 16.0934 0 0
5:35 am 05:35 Clear 24 -4.5 22 -5.8 91 91 Calm 30 1016 10 16.0934 0 0
5:55 am 05:55 Clear 25 -4.1 22 -5.8 88 88 Calm 29.97 1015 10 16.0934 0 0
6:15 am 06:15 Clear 24 -4.6 21 -6.2 89 89 SSE 3 6 29.97 1015 10 16.0934 0 0
6:35 am 06:35 Clear 25 -4.1 21 -6.2 86 86 SSW 5 7 29.97 1015 10 16.0934 0 0
6:55 am 06:55 Clear 24 -4.6 21 -6.2 89 89 SSW 3 6 29.97 1015 10 16.0934 0 0
7:15 am 07:15 Clear 23 -4.8 21 -6 91 91 SSW 3 6 29.97 1015 10 16.0934 0 0
7:35 am 07:35 Clear 25 -4.1 22 -5.6 89 89 SSW 6 9 29.97 1015 10 16.0934 0 0
7:55 am 07:55 Clear 25 -4.1 22 -5.6 89 89 SW 6 9 29.94 1014 10 16.0934 0 0
8:15 am 08:15 Sunny 25 -3.9 22 -5.5 89 89 Calm 29.97 1015 10 16.0934 0 0
8:35 am 08:35 Sunny 27 -2.9 22 -5.3 84 84 SSW 3 6 29.97 1015 10 16.0934 0 0
8:55 am 08:55 Sunny 29 -1.9 24 -4.7 81 81 SSW 6 9 29.91 1013 10 16.0934 0 0
9:15 am 09:15 Sunny 31 -0.6 25 -4 78 78 S 6 9 29.91 1013 10 16.0934 0 0
9:35 am 09:35 Sunny 33 0.5 26 -3.5 75 75 SSW 8 13 29.91 1013 10 16.0934 0 0
9:55 am 09:55 Sunny 34 1.3 26 -3.3 72 72 S 8 13 29.88 1012 10 16.0934 0 0
10:15 am 10:15 Sunny 37 2.9 27 -2.7 67 67 S 8 13 29.85 1011 10 16.0934 0 0
10:35 am 10:35 Sunny 39 4 27 -2.8 62 62 S 10 17 29.83 1010 10 16.0934 0 0
10:55 am 10:55 Sunny 40 4.5 27 -2.6 60 60 SSW 14 22 29.83 1010 10 16.0934 0 0
11:15 am 11:15 Sunny 41 5.1 27 -2.6 58 58 SSW 14 22 29.83 1010 10 16.0934 0 0
11:35 am 11:35 Sunny 41 5.1 27 -2.9 57 57 SSW 14 22 29.83 1010 10 16.0934 0 0
11:55 am 11:55 Sunny 42 5.7 26 -3.3 53 53 S 10 17 29.8 1009 10 16.0934 0 0
12:15 pm 12:15 Sunny 44 6.7 27 -2.7 51 51 SSW 14 22 29.8 1009 10 16.0934 0 0
12:35 pm 12:35 Sunny 45 7.3 27 -2.8 49 49 SSW 13 20 29.74 1007 10 16.0934 0 0
12:55 pm 12:55 Sunny 46 8 28 -2.3 49 49 S 17 28 29.74 1007 10 16.0934 0 0
1:15 pm 13:15 Sunny 47 8.6 27 -2.8 45 45 S 15 24 29.71 1006 10 16.0934 0 0
1:35 pm 13:35 Sunny 48 8.8 26 -3.6 42 42 S 15 24 29.71 1006 10 16.0934 0 0
1:55 pm 13:55 Sunny 48 9 25 -3.9 40 40 S 18 30 29.71 1006 10 16.0934 0 0
2:15 pm 14:15 Sunny 49 9.2 26 -3.6 41 41 SSW 16 26 29.68 1005 10 16.0934 0 0
2:35 pm 14:35 Sunny 49 9.2 26 -3.4 41 41 S 21 33 29.68 1005 10 16.0934 0 0
2:55 pm 14:55 Sunny 49 9.2 26 -3.3 42 42 S 20 31 29.68 1005 10 16.0934 0 0
3:15 pm 15:15 Sunny 48 9.1 26 -3.3 42 42 S 18 30 29.68 1005 10 16.0934 0 0
3:35 pm 15:35 Sunny 48 9 26 -3.1 43 43 SSW 14 22 29.68 1005 10 16.0934 0 0
3:55 pm 15:55 Sunny 47 8.1 27 -3 46 46 S 13 20 29.68 1005 10 16.0934 0 0
4:15 pm 16:15 Sunny 46 8 27 -2.7 47 47 S 13 20 29.68 1005 10 16.0934 0 0
4:35 pm 16:35 Sunny 47 8.1 28 -2.5 47 47 SSW 10 17 29.68 1005 10 16.0934 0 0
4:55 pm 16:55 Sunny 45 7.2 28 -2.5 50 50 SSW 9 15 29.71 1006 10 16.0934 0 0
5:15 pm 17:15 Clear 44 6.4 28 -2.5 53 53 S 7 11 29.68 1005 10 16.0934 0 0
5:35 pm 17:35 Clear 42 5.4 27 -2.7 56 56 SSW 8 13 29.74 1007 10 16.0934 0 0
5:55 pm 17:55 Clear 42 5.3 27 -2.6 57 57 SSW 7 11 29.74 1007 10 16.0934 0 0
6:15 pm 18:15 Clear 42 5.5 27 -3 55 55 SSW 12 19 29.74 1007 10 16.0934 0 0
6:35 pm 18:35 Clear 41 5 27 -3 57 57 SSW 10 17 29.74 1007 10 16.0934 0 0
6:55 pm 18:55 Clear 41 5.1 26 -3.2 55 55 SSW 10 17 29.74 1007 10 16.0934 0 0
7:15 pm 19:15 Clear 41 5 26 -3.1 56 56 SSW 9 15 29.74 1007 10 16.0934 0 0
7:35 pm 19:35 Clear 40 4.3 27 -3 59 59 SW 9 15 29.74 1007 10 16.0934 0 0
7:55 pm 19:55 Clear 39 4.1 26 -3.3 59 59 WNW 6 9 29.77 1008 10 16.0934 0 0
8:15 pm 20:15 Clear 38 3.2 26 -3.3 63 63 NNW 5 7 29.8 1009 10 16.0934 0 0
8:35 pm 20:35 Clear 37 2.5 26 -3.4 65 65 Calm 29.8 1009 10 16.0934 0 0
8:55 pm 20:55 Clear 34 1 26 -3.1 74 74 N 5 7 29.8 1009 10 16.0934 0 0
9:15 pm 21:15 Clear 34 0.9 27 -3 75 75 NNW 5 7 29.83 1010 10 16.0934 0 0
9:35 pm 21:35 Clear 35 1.6 27 -2.6 74 74 N 6 9 29.83 1010 10 16.0934 0 0
9:55 pm 21:55 Clear 36 2.4 27 -2.6 70 70 N 7 11 29.83 1010 10 16.0934 0 0
10:15 pm 22:15 Clear 38 3.2 28 -2.2 68 68 NNW 7 11 29.85 1011 10 16.0934 0 0
10:35 pm 22:35 Clear 37 2.7 28 -2 71 71 NNW 8 13 29.85 1011 10 16.0934 0 0
10:55 pm 22:55 Clear 38 3.4 29 -1.7 70 70 NNW 8 13 29.85 1011 10 16.0934 0 0
11:15 pm 23:15 Clear 37 3 29 -1.5 73 73 NNW 8 13 29.85 1011 10 16.0934 0 0
11:35 pm 23:35 Clear 35 1.9 29 -1.7 77 77 NW 8 13 29.85 1011 10 16.0934 0 0
11:55 pm 23:55 Clear 34 1.2 29 -1.8 81 81 NNW 9 15 29.85 1011 10 16.0934 0 0

Powered by AerisWeather